Weather History for KBIL - October, 2011

Change the Weather History Date:

Thursday, October 20, 2011

  Actual Average Record
Temperature  
Mean Temperature 57 °F 47 °F  
Max Temperature 68 °F 58 °F 82 °F (1947)
Min Temperature 46 °F 36 °F 20 °F (1949)
Degree Days  
Heating Degree Days 8 18  
Month to date heating degree days 222 297  
Since 1 July heating degree days 310 526  
Cooling Degree Days 0 0  
Month to date cooling degree days 22 0  
Year to date cooling degree days 734 633  
Growing Degree Days 6 (Base 50)    
Moisture  
Dew Point 33 °F    
Average Humidity 42    
Maximum Humidity 58    
Minimum Humidity 26    
Precipitation  
Precipitation T in 0.03 in 0.53 in (1949)
Month to date precipitation 1.40 0.85  
Year to date precipitation 18.61 12.20  
Snow  
Snow 0.00 in 0.10 in 9.30 in (1949)
Month to date snowfall 0.0 2.5  
Since 1 July snowfall T 3.6  
Since 1 September snowfall 0.0 3.6  
Snow Depth 0.00 in    
Sea Level Pressure  
Sea Level Pressure 29.95 in    
Wind  
Wind Speed 11 mph (WSW)    
Max Wind Speed 25 mph    
Max Gust Speed 31 mph    
Visibility 10 miles    
Events      
T = Trace of Precipitation, MM = Missing Value Source: NWS Daily Summary

Daily Weather History Graph

Daily Weather History Graph

Search for Another Location

Airport or City:

Trip Planner

Search our weather history database for the weather conditions in past years. The results will help you decide how hot, cold, wet, or windy it might be!

Date:

Astronomy

Oct. 20, 2011 Rise Set
Actual Time 7:37 AM MDT 6:19 PM MDT
Civil Twilight 7:07 AM MDT 6:50 PM MDT
Nautical Twilight 6:32 AM MDT 7:24 PM MDT
Astronomical Twilight 5:57 AM MDT 7:59 PM MDT
Moon 12:03 AM MDT (10/20) 2:50 PM MDT (10/20)
Length of Visible Light 11h 43m
Length of Day
10h 42m
Last Quarter, 43% of the Moon is Illuminated
Oct 20
Last Quarter
Oct 26
New
Nov 2
First Quarter
Nov 10
Full
Nov 18
Last Quarter

Hourly Weather History & Observations

Time (MDT) Temp. Windchill Dew Point Humidity Pressure Visibility Wind Dir Wind Speed Gust Speed Precip Events Conditions
12:53 AM 51.1 °F - 34.0 °F 52% 29.88 in 10.0 mi WSW 11.5 mph - N/A   Clear
1:53 AM 50.0 °F - 33.1 °F 52% 29.89 in 10.0 mi WSW 11.5 mph - N/A   Clear
2:53 AM 48.9 °F - 30.9 °F 50% 29.90 in 10.0 mi SW 11.5 mph - N/A   Clear
3:53 AM 50.0 °F - 28.9 °F 44% 29.90 in 10.0 mi WSW 12.7 mph - N/A   Clear
4:53 AM 51.1 °F - 30.0 °F 44% 29.91 in 10.0 mi WSW 13.8 mph - N/A   Clear
5:53 AM 46.9 °F - 32.0 °F 56% 29.94 in 10.0 mi WSW 11.5 mph - N/A   Clear
6:53 AM 46.9 °F - 30.9 °F 54% 29.95 in 10.0 mi WSW 10.4 mph - N/A   Partly Cloudy
7:53 AM 46.0 °F 41.0 °F 30.9 °F 56% 29.96 in 10.0 mi WSW 10.4 mph - N/A   Partly Cloudy
8:53 AM 48.0 °F - 30.9 °F 52% 29.98 in 10.0 mi SW 13.8 mph - N/A   Partly Cloudy
9:53 AM 48.9 °F - 33.1 °F 54% 29.99 in 10.0 mi SW 13.8 mph - N/A   Partly Cloudy
10:53 AM 55.0 °F - 33.1 °F 43% 29.97 in 10.0 mi SW 12.7 mph - N/A   Partly Cloudy
11:53 AM 59.0 °F - 34.0 °F 39% 29.95 in 10.0 mi SW 10.4 mph - N/A   Partly Cloudy
12:53 PM 66.9 °F - 32.0 °F 27% 29.92 in 10.0 mi West 19.6 mph 25.3 mph N/A   Partly Cloudy
1:53 PM 66.2 °F - 30.2 °F 26% 29.95 in 10.0 mi West 21.9 mph 28.8 mph N/A   Partly Cloudy
2:53 PM 66.9 °F - 30.9 °F 26% 29.91 in 10.0 mi WNW 21.9 mph 28.8 mph N/A   Scattered Clouds
3:53 PM 66.9 °F - 30.9 °F 26% 29.91 in 10.0 mi West 16.1 mph - N/A   Scattered Clouds
4:53 PM 64.9 °F - 32.0 °F 29% 29.93 in 10.0 mi West 10.4 mph - N/A   Scattered Clouds
5:53 PM 63.0 °F - 33.1 °F 33% 29.94 in 10.0 mi NNW 11.5 mph - N/A   Scattered Clouds
6:53 PM 60.1 °F - 34.0 °F 38% 29.96 in 10.0 mi NNW 9.2 mph - N/A   Scattered Clouds
7:53 PM 57.9 °F - 35.1 °F 42% 30.00 in 10.0 mi West 9.2 mph - N/A   Mostly Cloudy
8:53 PM 57.9 °F - 34.0 °F 41% 29.99 in 10.0 mi Calm Calm - N/A   Scattered Clouds
9:53 PM 55.0 °F - 36.0 °F 49% 30.02 in 10.0 mi Calm Calm - N/A   Mostly Cloudy
10:53 PM 55.9 °F - 35.1 °F 45% 30.01 in 10.0 mi Calm Calm - 0.00 in   Overcast
11:53 PM 55.0 °F - 37.9 °F 53% 30.01 in 10.0 mi Calm Calm - 0.00 in   Overcast